| time (UTC) | temp F | wind direction | speed MPH | gust MPH | rain 1hr in | rain 24hr in | rain mn in | humidity % | barometer mb |
| 20260510111502 | 64 | 308 | 0.0 | 0.0 | 0.00 | 0.00 | 0.00 | 5 | 1008.6 |
| 20260510110058 | 64 | 308 | 0.0 | 0.0 | 0.00 | 0.00 | 0.00 | 3 | 1008.7 |
| 20260510104538 | 63 | 308 | 0.0 | 0.0 | 0.00 | 0.00 | 0.00 | 3 | 1008.7 |
| 20260510103034 | 63 | 308 | 0.0 | 0.0 | 0.00 | 0.00 | 0.00 | 4 | 1008.6 |
| 20260510101509 | 64 | 308 | 0.0 | 0.0 | 0.00 | 0.00 | 0.00 | 4 | 1008.6 |
| 20260510100006 | 64 | 308 | 0.0 | 0.0 | 0.00 | 0.00 | 0.00 | 4 | 1008.7 |
| 20260510094544 | 64 | 308 | 0.0 | 0.0 | 0.00 | 0.00 | 0.00 | 4 | 1008.6 |
| 20260510093058 | 64 | 308 | 0.0 | 0.0 | 0.00 | 0.00 | 0.00 | 3 | 1008.6 |
| 20260510091517 | 64 | 308 | 0.0 | 0.0 | 0.00 | 0.00 | 0.00 | 4 | 1008.7 |
| 20260510090021 | 63 | 308 | 0.0 | 0.0 | 0.00 | 0.00 | 0.00 | 5 | 1008.8 |
| 20260510084551 | 63 | 308 | 0.0 | 0.0 | 0.00 | 0.00 | 0.00 | 4 | 1008.8 |
| 20260510083101 | 63 | 308 | 0.0 | 0.0 | 0.00 | 0.00 | 0.00 | 5 | 1008.8 |
| 20260510081526 | 63 | 308 | 0.0 | 0.0 | 0.00 | 0.00 | 0.00 | 6 | 1008.9 |
| 20260510080020 | 64 | 308 | 0.0 | 0.0 | 0.00 | 0.00 | 0.00 | 5 | 1009.0 |
| 20260510074604 | 64 | 308 | 0.0 | 0.0 | 0.00 | 0.00 | 0.00 | 6 | 1009.1 |
| 20260510073055 | 64 | 308 | 0.0 | 0.0 | 0.00 | 0.00 | 0.00 | 5 | 1009.1 |
| 20260510071533 | 64 | 308 | 0.0 | 0.0 | 0.00 | 0.00 | 0.00 | 5 | 1009.2 |
| 20260510070030 | 63 | 307 | 0.0 | 0.0 | 0.00 | 0.00 | 0.00 | 5 | 1009.1 |
| 20260510064506 | 63 | 308 | 0.0 | 0.0 | 0.00 | 0.00 | 0.00 | 5 | 1009.2 |
| 20260510063003 | 63 | 308 | 0.0 | 0.0 | 0.00 | 0.00 | 0.00 | 5 | 1009.1 |
| 20260510061540 | 63 | 319 | 0.0 | 0.0 | 0.00 | 0.00 | 0.00 | 4 | 1009.0 |
| 20260510060038 | 62 | 320 | 0.0 | 0.0 | 0.00 | 0.00 | 0.00 | 6 | 1008.9 |
| 20260510054517 | 62 | 320 | 0.0 | 0.0 | 0.00 | 0.00 | 0.00 | 8 | 1008.9 |
| 20260510053010 | 62 | 322 | 0.0 | 0.0 | 0.00 | 0.00 | 0.00 | 8 | 1008.8 |
| 20260510051607 | 60 | 333 | 0.0 | 0.0 | 0.00 | 0.00 | 0.00 | 14 | 1008.8 |
| 20260510050045 | 60 | 333 | 0.0 | 0.0 | 0.00 | 0.00 | 0.00 | 15 | 1008.6 |
| 20260510044555 | 60 | 333 | 0.0 | 0.0 | 0.00 | 0.00 | 0.00 | 20 | 1008.4 |
| 20260510043021 | 58 | 333 | 0.0 | 0.0 | 0.00 | 0.00 | 0.00 | 39 | 1008.2 |
| 20260510041518 | 59 | 333 | 0.0 | 0.0 | 0.00 | 0.00 | 0.00 | 60 | 1008.2 |
| 20260510040053 | 60 | 333 | 0.0 | 0.0 | 0.00 | 0.00 | 0.00 | 59 | 1008.2 |
| 20260510034548 | 60 | 333 | 0.0 | 0.0 | 0.00 | 0.00 | 0.00 | 60 | 1008.1 |
| 20260510033027 | 60 | 334 | 0.0 | 0.0 | 0.00 | 0.00 | 0.00 | 57 | 1007.9 |
| 20260510031525 | 61 | 326 | 0.0 | 0.0 | 0.00 | 0.00 | 0.00 | 52 | 1007.8 |
| 20260510030004 | 61 | 326 | 0.0 | 0.0 | 0.00 | 0.00 | 0.00 | 49 | 1007.7 |
| 20260510024557 | 62 | 326 | 0.0 | 0.0 | 0.00 | 0.00 | 0.00 | 45 | 1007.7 |
| 20260510023035 | 63 | 326 | 0.0 | 0.0 | 0.00 | 0.00 | 0.00 | 40 | 1007.7 |
| 20260510021533 | 64 | 326 | 0.0 | 0.0 | 0.00 | 0.00 | 0.00 | 37 | 1007.7 |
| 20260510020009 | 65 | 326 | 0.0 | 0.0 | 0.00 | 0.00 | 0.00 | 37 | 1007.6 |
| 20260510014504 | 66 | 324 | 0.0 | 2.0 | 0.00 | 0.00 | 0.00 | 35 | 1007.6 |
| 20260510013043 | 67 | 266 | 0.0 | 1.0 | 0.00 | 0.00 | 0.00 | 36 | 1007.5 |
| 20260510011539 | 68 | 264 | 0.0 | 1.0 | 0.00 | 0.00 | 0.00 | 40 | 1007.5 |
| 20260510010018 | 69 | 255 | 1.0 | 2.0 | 0.00 | 0.00 | 0.00 | 40 | 1007.6 |
| 20260510004513 | 69 | 222 | 0.0 | 1.0 | 0.00 | 0.00 | 0.00 | 20 | 1007.5 |
| 20260510003052 | 69 | 240 | 1.0 | 2.0 | 0.00 | 0.00 | 0.00 | 27 | 1007.5 |
| 20260510001546 | 69 | 197 | 1.0 | 4.0 | 0.00 | 0.00 | 0.00 | 35 | 1007.4 |
| 20260510000026 | 68 | 191 | 1.0 | 3.0 | 0.00 | 0.00 | 0.00 | 45 | 1007.3 |
| 20260509234521 | 68 | 197 | 1.0 | 3.0 | 0.00 | 0.00 | 0.00 | 54 | 1007.3 |
| 20260509233059 | 67 | 174 | 2.0 | 6.0 | 0.00 | 0.00 | 0.00 | 61 | 1007.3 |
| 20260509231556 | 67 | 197 | 1.0 | 5.0 | 0.00 | 0.00 | 0.00 | 61 | 1007.4 |
| 20260509230034 | 69 | 223 | 0.0 | 3.0 | 0.00 | 0.00 | 0.00 | 58 | 1007.5 |
| 20260509224535 | 69 | 184 | 2.0 | 5.0 | 0.00 | 0.00 | 0.00 | 49 | 1007.8 |
| 20260509223100 | 69 | 215 | 2.0 | 5.0 | 0.00 | 0.00 | 0.00 | 55 | 1007.9 |
| 20260509221556 | 70 | 224 | 2.0 | 5.0 | 0.00 | 0.00 | 0.00 | 53 | 1008.0 |
| 20260509220035 | 70 | 240 | 1.0 | 5.0 | 0.00 | 0.00 | 0.00 | 53 | 1008.2 |
| 20260509214532 | 70 | 184 | 2.0 | 5.0 | 0.00 | 0.00 | 0.00 | 50 | 1008.3 |
| 20260509213015 | 70 | 170 | 2.0 | 5.0 | 0.00 | 0.00 | 0.00 | 51 | 1008.5 |
| 20260509211511 | 71 | 165 | 3.0 | 7.0 | 0.00 | 0.00 | 0.00 | 49 | 1008.6 |
| 20260509210008 | 71 | 190 | 2.0 | 4.0 | 0.00 | 0.00 | 0.00 | 47 | 1008.7 |
| 20260509204502 | 71 | 190 | 3.0 | 6.0 | 0.00 | 0.00 | 0.00 | 49 | 1008.8 |
| 20260509203140 | 72 | 238 | 2.0 | 5.0 | 0.00 | 0.00 | 0.00 | 46 | 1009.0 |
| 20260509201607 | 71 | 162 | 2.0 | 6.0 | 0.00 | 0.00 | 0.00 | 46 | 1008.9 |
| 20260509200059 | 71 | 198 | 3.0 | 6.0 | 0.00 | 0.00 | 0.00 | 46 | 1009.0 |
| 20260509194546 | 71 | 181 | 3.0 | 5.0 | 0.00 | 0.00 | 0.00 | 47 | 1009.0 |
| 20260509193042 | 72 | 176 | 2.0 | 5.0 | 0.00 | 0.00 | 0.00 | 46 | 1009.0 |
| 20260509191544 | 71 | 197 | 2.0 | 5.0 | 0.00 | 0.00 | 0.00 | 46 | 1009.1 |
| 20260509190033 | 71 | 167 | 2.0 | 4.0 | 0.00 | 0.00 | 0.00 | 44 | 1009.1 |
| 20260509184533 | 72 | 169 | 2.0 | 4.0 | 0.00 | 0.00 | 0.00 | 43 | 1009.2 |
| 20260509183025 | 71 | 167 | 1.0 | 4.0 | 0.00 | 0.00 | 0.00 | 43 | 1009.4 |
| 20260509181520 | 71 | 203 | 1.0 | 4.0 | 0.00 | 0.00 | 0.00 | 41 | 1009.6 |
| 20260509180049 | 71 | 165 | 0.0 | 2.0 | 0.00 | 0.00 | 0.00 | 40 | 1009.7 |
| 20260509174546 | 71 | 124 | 1.0 | 3.0 | 0.00 | 0.00 | 0.00 | 41 | 1009.7 |
| 20260509173023 | 71 | 184 | 1.0 | 3.0 | 0.00 | 0.00 | 0.00 | 40 | 1009.7 |
| 20260509171520 | 73 | 170 | 0.0 | 2.0 | 0.00 | 0.00 | 0.00 | 32 | 1009.7 |
| 20260509170100 | 71 | 215 | 0.0 | 2.0 | 0.00 | 0.00 | 0.00 | 26 | 1009.7 |
| 20260509164602 | 72 | 192 | 0.0 | 3.0 | 0.00 | 0.00 | 0.00 | 21 | 1009.7 |
| 20260509163032 | 71 | 167 | 0.0 | 1.0 | 0.00 | 0.00 | 0.00 | 19 | 1009.6 |
| 20260509161528 | 70 | 304 | 0.0 | 1.0 | 0.00 | 0.00 | 0.00 | 15 | 1009.7 |
| 20260509160007 | 68 | 304 | 0.0 | 0.0 | 0.00 | 0.00 | 0.00 | 19 | 1009.6 |
| 20260509154502 | 67 | 303 | 0.0 | 0.0 | 0.00 | 0.00 | 0.00 | 16 | 1009.6 |
| 20260509153044 | 67 | 304 | 0.0 | 1.0 | 0.00 | 0.00 | 0.00 | 11 | 1009.6 |
| 20260509151539 | 65 | 305 | 0.0 | 1.0 | 0.00 | 0.00 | 0.00 | 9 | 1009.5 |
| 20260509150014 | 64 | 310 | 0.0 | 2.0 | 0.00 | 0.00 | 0.00 | 13 | 1009.6 |
| 20260509144509 | 63 | 310 | 0.0 | 1.0 | 0.00 | 0.00 | 0.00 | 10 | 1009.6 |
| 20260509143047 | 63 | 310 | 0.0 | 1.0 | 0.00 | 0.00 | 0.00 | 11 | 1009.5 |
| 20260509141544 | 63 | 310 | 0.0 | 0.0 | 0.00 | 0.00 | 0.00 | 9 | 1009.4 |
| 20260509140021 | 63 | 310 | 0.0 | 1.0 | 0.00 | 0.00 | 0.00 | 9 | 1009.3 |
| 20260509134519 | 63 | 311 | 0.0 | 1.0 | 0.00 | 0.00 | 0.00 | 8 | 1009.3 |
| 20260509133105 | 62 | 311 | 1.0 | 2.0 | 0.00 | 0.00 | 0.00 | 7 | 1009.2 |
| 20260509131601 | 62 | 311 | 1.0 | 2.0 | 0.00 | 0.00 | 0.00 | 7 | 1009.2 |
| 20260509130100 | 62 | 314 | 1.0 | 2.0 | 0.00 | 0.00 | 0.00 | 7 | 1009.2 |
| 20260509124549 | 62 | 313 | 0.0 | 1.0 | 0.00 | 0.00 | 0.00 | 6 | 1009.2 |
| 20260509123049 | 62 | 301 | 0.0 | 2.0 | 0.00 | 0.00 | 0.00 | 6 | 1009.0 |
| 20260509121539 | 62 | 301 | 0.0 | 1.0 | 0.00 | 0.00 | 0.00 | 4 | 1009.0 |
| 20260509120036 | 62 | 301 | 0.0 | 1.0 | 0.00 | 0.00 | 0.00 | 4 | 1009.0 |
| 20260509114530 | 62 | 302 | 0.0 | 1.0 | 0.00 | 0.00 | 0.00 | 5 | 1009.2 |
| 20260509113010 | 62 | 302 | 1.0 | 3.0 | 0.00 | 0.00 | 0.00 | 4 | 1009.1 |